Regional Weather Roundup
Issued by NWS Mt. Holly, NJ

Home | Current Version | Previous Version | Text Only | Print | Product List | Glossary On
Versions: 1 2 3 4 5 6 7 8 9 10 11 12 13 14 15 16 17 18 19 20 21 22 23 24 25 26 27
000
ASUS41 KPHI 230211
RWRPHI

REGIONAL WEATHER ROUNDUP
NATIONAL WEATHER SERVICE MOUNT HOLLY NJ
1000 PM EDT WED MAR 22 2017

NOTE:  "FAIR" INDICATES FEW OR NO CLOUDS BELOW 12,000 FEET WITH NO
SIGNIFICANT WEATHER AND/OR OBSTRUCTIONS TO VISIBILITY.

 * = STATION DOES NOT REPORT PRECIPITATION (E.G. RAIN, SNOW, ETC.)
        OR FOG.

NJZ015>026-230300-
SOUTHERN NEW JERSEY

CITY           SKY/WX    TMP DP  RH WIND       PRES   REMARKS
POMONA         CLEAR     30  -2  25 N14       30.42R WCI  19
WILDWOOD*      CLEAR     34   3  27 N15G25    30.43R WCI  24
MILLVILLE      CLEAR     31   3  30 N9        30.43R WCI  23
WRIGHTSTOWN    CLEAR     28  -1  28 NW16G24   30.40R WCI  15
MOUNT HOLLY    CLEAR     28  -4  25 NW14G21   30.45R WCI  17
TRENTON        CLEAR     27  -1  30 N15G23    30.42R WCI  15

$$
NJZ001>014-230300-
NORTHERN NEW JERSEY

CITY           SKY/WX    TMP DP  RH WIND       PRES   REMARKS
SUSSEX         CLEAR     22   0  38 NW12G22   30.42R WCI  10
ANDOVER*         N/A     21  -1  38 N12G18    30.42R WCI   9
MORRISTOWN     CLEAR     23   1  39 N10G17    30.44R WCI  12
NEWARK         CLEAR     27  -1  30 NW15G26   30.42R WCI  15
TETERBORO      CLEAR     27  -1  30 N14G22    30.42R WCI  16
CALDWELL       CLEAR     25   0  33 NW12G18   30.43R WCI  14
SOMERVILLE     CLEAR     26  -1  31 N10G20    30.43R WCI  16
ALLAIRE*       CLEAR    N/A N/A N/A NW20G25   30.42R
TOMS RIVER*    CLEAR     27   2  34 NW8       30.43R WCI  19

$$
PAZ043-044-047-054-055-060>062-066>071-230300-
EASTERN PENNSYLVANIA

CITY           SKY/WX    TMP DP  RH WIND       PRES   REMARKS
PHILADELPHIA   CLEAR     31  -4  22 N16G28    30.46R WCI  20
NORTH PHILA    CLEAR     29   0  28 N16       30.46R WCI  17
BLUE BELL*     CLEAR     28  -2  26 N8        30.44R WCI  20
QUAKERTOWN*    CLEAR     27  -2  28 N10G17    30.44R WCI  17
PERKASIE*      FAIR      25   0  33 N10G17    30.44R WCI  15
POTTSTOWN      CLEAR     27  -1  30 N7        30.46R WCI  19
LANCASTER      CLEAR     29   4  34 N8        30.45R WCI  21
COATESVILLE    CLEAR     28  -2  26 N8        30.43R WCI  20
READING        CLEAR     29   1  30 N13       30.45R WCI  19
ALLENTOWN      CLEAR     26   1  34 NW12G22   30.45R WCI  16
MOUNT POCONO   CLEAR     14   0  53 NW16G23   30.31R WCI  -2
HAZLETON       CLEAR     19   0  42 NW8       30.40R WCI   9
LEHIGHTON      FAIR      27   0  31 NW10G17   30.45R WCI  17
WILKES BARRE   CLEAR     19   4  51 N7        30.43R WCI  10

$$
DEZALL-MDZ008-012-015-019-020-230300-
DELAWARE AND EASTERN MARYLAND

CITY           SKY/WX    TMP DP  RH WIND       PRES   REMARKS
WILMINGTON     CLEAR     31   1  28 N10       30.45R WCI  22
DOVER          CLEAR     29  13  52 NW8       30.43R WCI  21
GEORGETOWN     CLEAR     35   6  29 N9        30.43R WCI  28
EASTON         CLEAR     36   7  30 N7        30.48R WCI  30
PATUXENT       CLEAR     40  11  30 N14       30.43R WCI  32
OCEAN CITY     CLEAR     35  11  36 N12G20    30.42R WCI  27
WALLOPS ISLAND CLEAR     35  11  36 N8        30.43R WCI  29
CAMBRIDGE      CLEAR     37   7  28 N8        30.44R WCI  31
SALISBURY      CLEAR     33  10  38 N7        30.43R WCI  27

$$
PAZ001-021-NYZ056-072-MDZ011-DCZ001-230300-
OTHER NEARBY LOCATIONS

CITY           SKY/WX    TMP DP  RH WIND       PRES   REMARKS
HARRISBURG     CLEAR     32   2  27 N8        30.45R WCI  25
WILLIAMSPORT   CLEAR     27  -1  30 NW6       30.48R WCI  20
BINGHAMTON     CLEAR     13   3  64 NW6       30.38R WCI   4
NEW YORK CITY  CLEAR     26  -4  27 MISG      30.42R
BALTIMORE      CLEAR     37   4  25 N3        30.44R
WASHINGTON DC  CLEAR     40   6  24 N12       30.46R WCI  33

$$




USA.gov is the U.S. government's official web portal to all federal, state and local government web resources and services.